Miscellaneous Local Product
Issued by NWS Hastings, NE

Home | Current Version | Previous Version | Text Only | Print | Product List | Glossary Off
Versions: 1 2 3 4 5 6 7 8 9 10 11 12 13 14 15 16 17 18 19 20 21 22 23 24 25 26 27 28 29 30 31 32 33 34 35 36 37 38 39 40 41 42 43 44 45 46 47 48 49 50

000
AXUS43 KGID 251802
MISGRI

GID CWA HOURLY WEATHER ROUNDUP
NATIONAL WEATHER SERVICE HASTINGS NE
100 PM CDT MON JUL 25 2016

NOTE: "FAIR" INDICATES FEW OR NO CLOUDS BELOW 12,000 FEET WITH NO
SIGNIFICANT WEATHER AND/OR OBSTRUCTIONS TO VISIBILITY.

...SOUTH CENTRAL NEBRASKA...

CITY           SKY/WX    TMP DP  RH WIND       PRES   REMARKS
GRAND ISLAND   SUNNY     81  64  56 SE8       30.15F
HASTINGS       SUNNY     83  64  52 SE9       30.15F
KEARNEY        SUNNY     82  63  51 SE10      30.17S
ORD            SUNNY     81  54  39 SE10      30.14F
YORK           SUNNY     81  66  61 SE3       30.15F
AURORA         SUNNY     80  64  56 S7        30.15F
LEXINGTON      SUNNY     81  63  54 SE10G17   30.17S
HOLDREGE       SUNNY     80  64  59 SE10      30.16F
HEBRON         MOSUNNY   82  59  46 E7        30.13S

...NEBRASKA PANHANDLE...

CITY           SKY/WX    TMP DP  RH WIND       PRES   REMARKS
CHADRON        SUNNY     86  54  33 S16G24    30.09F
ALLIANCE       SUNNY     81  57  43 S18G28    30.16F
SCOTTSBLUFF    SUNNY     85  54  34 S21       30.13F
SIDNEY         SUNNY     82  58  43 SE21G28   30.19F

...WESTERN AND NORTH CENTRAL NEBRASKA...

CITY           SKY/WX    TMP DP  RH WIND       PRES   REMARKS
VALENTINE      SUNNY     87  46  24 S20G28    30.12F
AINSWORTH      SUNNY     84  51  31 S17G23    30.15F
ONEILL         SUNNY     84  53  34 S14       30.15F
BROKEN BOW     SUNNY     80  62  54 SE12G23   30.17F
IMPERIAL       SUNNY     82  62  50 SE13      30.17F
NORTH PLATTE   SUNNY     82  66  58 SE12      30.15F
MCCOOK         SUNNY     85  61  44 SE13      30.15F

...EASTERN NEBRASKA...

CITY           SKY/WX    TMP DP  RH WIND       PRES   REMARKS
NORFOLK        SUNNY     81  62  52 S12       30.14F
SO SIOUX CITY  SUNNY     85  61  44 SE6       30.12F
TEKAMAH        SUNNY     84  62  47 S7        30.13S
COLUMBUS       MOSUNNY   81  61  50 S9        30.15F
ALBION         SUNNY     80  62  53 S8        30.16F
OMAHA EPPLEY   MOSUNNY   84  64  50 E5        30.12F
OFFUTT AFB     MOSUNNY   83  65  54 VRB1      30.12F
MILLARD        SUNNY     82  65  57 W7        30.12F
LINCOLN        SUNNY     84  62  47 MISG      30.13F
NEBRASKA CITY  MOSUNNY   80  63  55 E3        30.13F
BEATRICE       CLOUDY    84  58  40 E8        30.12F
FALLS CITY     PTSUNNY   82  68  62 NE7       30.09F

...NORTHERN KANSAS...

CITY           SKY/WX    TMP DP  RH WIND       PRES   REMARKS
GOODLAND       MOSUNNY   80  64  58 SE16      30.18F
HILL CITY      MOSUNNY   82  68  62 E9G17     30.15F
NORTON         PTCLDY    82  61  47 SE9       30.14
SMITH CENTER   MOSUNNY   81  66  61 SE9       30.15F
BELOIT         PTSUNNY   79  70  73 CALM      30.13R
HAYS           MOSUNNY   79  64  61 SE6       30.14F
RUSSELL        CLOUDY    78  68  71 NE3       30.13S
CONCORDIA      CLOUDY    77  69  76 E6        30.13S
SALINA         CLOUDY    74  69  85 NE3       30.11F
TOPEKA         CLOUDY    77  70  79 NE10      30.05F



USA.gov is the U.S. government's official web portal to all federal, state and local government web resources and services.